| time (UTC) | temp C | wind direction | speed KPH | gust KPH | rain 1hr cm | rain 24hr cm | rain mn cm | humidity % | barometer mb |
| 20260506194708 | 17 | 218 | 0.0 | 0.0 | 0.00 | 0.00 | 0.00 | 75 | 1012.8 |
| 20260506194319 | 17 | 218 | 0.0 | 4.8 | 0.00 | 0.00 | 0.00 | 74 | 1012.7 |
| 20260506193708 | 17 | 218 | 0.0 | 4.8 | 0.00 | 0.00 | 0.00 | 74 | 1012.6 |
| 20260506193553 | 17 | 165 | 0.0 | 3.2 | 0.00 | 0.00 | 0.00 | 74 | 1012.5 |
| 20260506192850 | 17 | 210 | 0.0 | 8.0 | 0.00 | 0.00 | 0.00 | 73 | 1012.5 |
| 20260506192832 | 17 | 157 | 0.0 | 3.2 | 0.00 | 0.00 | 0.00 | 73 | 1012.5 |
| 20260506191822 | 17 | 212 | 0.0 | 8.0 | 0.00 | 0.00 | 0.00 | 73 | 1012.4 |
| 20260506191209 | 17 | 278 | 1.6 | 6.4 | 0.00 | 0.00 | 0.00 | 73 | 1012.4 |
| 20260506190818 | 17 | 177 | 0.0 | 4.8 | 0.00 | 0.00 | 0.00 | 73 | 1012.3 |
| 20260506190207 | 17 | 236 | 1.6 | 8.0 | 0.00 | 0.00 | 0.00 | 73 | 1012.2 |
| 20260506185812 | 17 | 207 | 3.2 | 8.0 | 0.00 | 0.00 | 0.00 | 72 | 1012.1 |
| 20260506185217 | 18 | 120 | 3.2 | 8.0 | 0.00 | 0.00 | 0.00 | 72 | 1012.0 |
| 20260506184757 | 19 | 231 | 1.6 | 4.8 | 0.00 | 0.00 | 0.00 | 69 | 1011.7 |
| 20260506184739 | 18 | 172 | 1.6 | 8.0 | 0.00 | 0.00 | 0.00 | 71 | 1012.0 |
| 20260506184343 | 18 | 239 | 4.8 | 11.3 | 0.00 | 0.00 | 0.00 | 71 | 1012.0 |
| 20260506183939 | 18 | 136 | 4.8 | 14.5 | 0.00 | 0.00 | 0.00 | 70 | 1011.9 |
| 20260506183553 | 19 | 190 | 1.6 | 6.4 | 0.00 | 0.00 | 0.00 | 70 | 1011.7 |
| 20260506183549 | 19 | 171 | 1.6 | 8.0 | 0.00 | 0.00 | 0.00 | 69 | 1011.6 |
| 20260506183542 | 19 | 144 | 3.2 | 12.9 | 0.00 | 0.00 | 0.00 | 69 | 1011.7 |
| 20260506183425 | 18 | 271 | 4.8 | 14.5 | 0.00 | 0.00 | 0.00 | 70 | 1011.8 |
| 20260506183054 | 19 | 249 | 3.2 | 9.7 | 0.00 | 0.00 | 0.00 | 70 | 1011.8 |
| 20260506180204 | 19 | 79 | 4.8 | 12.9 | 0.00 | 0.00 | 0.00 | 69 | 1011.7 |
| 20260506175741 | 19 | 159 | 3.2 | 9.7 | 0.00 | 0.00 | 0.00 | 72 | 1011.7 |
| 20260506175203 | 18 | 148 | 6.4 | 14.5 | 0.00 | 0.00 | 0.00 | 73 | 1011.6 |
| 20260506174847 | 18 | 119 | 8.0 | 14.5 | 0.00 | 0.00 | 0.00 | 80 | 1011.6 |
| 20260506174822 | 18 | 320 | 9.7 | 14.5 | 0.00 | 0.00 | 0.00 | 78 | 1011.6 |
| 20260506173657 | 18 | 149 | 8.0 | 12.9 | 0.00 | 0.00 | 0.00 | 78 | 1011.5 |
| 20260506173154 | 18 | 200 | 6.4 | 12.9 | 0.00 | 0.00 | 0.00 | 77 | 1011.4 |
| 20260506172753 | 19 | 25 | 4.8 | 12.9 | 0.00 | 0.00 | 0.00 | 75 | 1011.4 |
| 20260506172738 | 18 | 154 | 4.8 | 12.9 | 0.00 | 0.00 | 0.00 | 76 | 1011.4 |
| 20260506171719 | 19 | 207 | 6.4 | 11.3 | 0.00 | 0.00 | 0.00 | 73 | 1011.4 |
| 20260506171239 | 20 | 130 | 4.8 | 14.5 | 0.00 | 0.00 | 0.00 | 72 | 1011.3 |
| 20260506171143 | 21 | 271 | 3.2 | 11.3 | 0.00 | 0.00 | 0.00 | 66 | 1011.3 |
| 20260506170740 | 20 | 106 | 6.4 | 14.5 | 0.00 | 0.00 | 0.00 | 70 | 1011.4 |
| 20260506170206 | 21 | 245 | 4.8 | 11.3 | 0.00 | 0.00 | 0.00 | 65 | 1011.2 |
| 20260506170156 | 20 | 165 | 6.4 | 11.3 | 0.00 | 0.00 | 0.00 | 68 | 1011.3 |
| 20260506165008 | 21 | 94 | 3.2 | 8.0 | 0.00 | 0.00 | 0.00 | 64 | 1011.1 |
| 20260506164253 | 21 | 274 | 1.6 | 8.0 | 0.00 | 0.00 | 0.00 | 62 | 1011.1 |
| 20260506163801 | 21 | 203 | 3.2 | 8.0 | 0.00 | 0.00 | 0.00 | 63 | 1011.2 |
| 20260506163738 | 21 | 244 | 1.6 | 8.0 | 0.00 | 0.00 | 0.00 | 63 | 1011.2 |
| 20260506162655 | 21 | 206 | 1.6 | 9.7 | 0.00 | 0.00 | 0.00 | 62 | 1011.2 |
| 20260506162243 | 21 | 221 | 3.2 | 9.7 | 0.00 | 0.00 | 0.00 | 61 | 1011.1 |
| 20260506161701 | 21 | 258 | 3.2 | 8.0 | 0.00 | 0.00 | 0.00 | 62 | 1011.1 |
| 20260506161237 | 21 | 182 | 3.2 | 9.7 | 0.00 | 0.00 | 0.00 | 60 | 1011.1 |
| 20260506160723 | 21 | 205 | 4.8 | 11.3 | 0.00 | 0.00 | 0.00 | 59 | 1011.2 |
| 20260506160213 | 21 | 77 | 3.2 | 9.7 | 0.00 | 0.00 | 0.00 | 56 | 1011.1 |
| 20260506160201 | 21 | 147 | 4.8 | 11.3 | 0.00 | 0.00 | 0.00 | 58 | 1011.1 |
| 20260506155231 | 21 | 119 | 4.8 | 9.7 | 0.00 | 0.00 | 0.00 | 55 | 1011.2 |
| 20260506154654 | 21 | 84 | 3.2 | 11.3 | 0.00 | 0.00 | 0.00 | 53 | 1011.3 |
| 20260506154225 | 21 | 217 | 3.2 | 12.9 | 0.00 | 0.00 | 0.00 | 55 | 1011.3 |
| 20260506153746 | 21 | 269 | 3.2 | 12.9 | 0.00 | 0.00 | 0.00 | 53 | 1011.2 |
| 20260506153221 | 21 | 237 | 4.8 | 11.3 | 0.00 | 0.00 | 0.00 | 53 | 1011.3 |
| 20260506152656 | 21 | 184 | 3.2 | 11.3 | 0.00 | 0.00 | 0.00 | 52 | 1011.3 |
| 20260506152216 | 21 | 162 | 3.2 | 9.7 | 0.00 | 0.00 | 0.00 | 52 | 1011.4 |
| 20260506151806 | 21 | 214 | 3.2 | 9.7 | 0.00 | 0.00 | 0.00 | 51 | 1011.4 |
| 20260506151210 | 21 | 131 | 3.2 | 9.7 | 0.00 | 0.00 | 0.00 | 51 | 1011.5 |
| 20260506150804 | 21 | 207 | 3.2 | 9.7 | 0.00 | 0.00 | 0.00 | 51 | 1011.4 |
| 20260506150154 | 21 | 210 | 3.2 | 11.3 | 0.00 | 0.00 | 0.00 | 50 | 1011.5 |
| 20260506145754 | 21 | 16 | 6.4 | 11.3 | 0.00 | 0.00 | 0.00 | 50 | 1011.4 |
| 20260506145154 | 21 | 271 | 4.8 | 14.5 | 0.00 | 0.00 | 0.00 | 50 | 1011.5 |
| 20260506144749 | 20 | 203 | 6.4 | 17.7 | 0.00 | 0.00 | 0.00 | 48 | 1011.5 |
| 20260506144155 | 21 | 289 | 6.4 | 17.7 | 0.00 | 0.00 | 0.00 | 48 | 1011.5 |
| 20260506143752 | 21 | 129 | 6.4 | 12.9 | 0.00 | 0.00 | 0.00 | 49 | 1011.5 |
| 20260506143154 | 20 | 193 | 4.8 | 12.9 | 0.00 | 0.00 | 0.00 | 49 | 1011.6 |
| 20260506142654 | 20 | 117 | 4.8 | 12.9 | 0.00 | 0.00 | 0.00 | 48 | 1011.7 |
| 20260506142155 | 20 | 205 | 4.8 | 12.9 | 0.00 | 0.00 | 0.00 | 50 | 1011.7 |
| 20260506141733 | 20 | 229 | 4.8 | 12.9 | 0.00 | 0.00 | 0.00 | 49 | 1011.6 |
| 20260506141154 | 21 | 272 | 6.4 | 12.9 | 0.00 | 0.00 | 0.00 | 51 | 1011.7 |
| 20260506140728 | 21 | 177 | 6.4 | 11.3 | 0.00 | 0.00 | 0.00 | 50 | 1011.8 |
| 20260506140214 | 21 | 189 | 4.8 | 14.5 | 0.00 | 0.00 | 0.00 | 49 | 1011.8 |
| 20260506135723 | 21 | 250 | 4.8 | 14.5 | 0.00 | 0.00 | 0.00 | 50 | 1011.8 |
| 20260506135203 | 21 | 212 | 3.2 | 12.9 | 0.00 | 0.00 | 0.00 | 50 | 1011.9 |
| 20260506134718 | 21 | 193 | 4.8 | 11.3 | 0.00 | 0.00 | 0.00 | 48 | 1011.9 |
| 20260506134311 | 21 | 299 | 4.8 | 9.7 | 0.00 | 0.00 | 0.00 | 49 | 1012.0 |
| 20260506133714 | 21 | 144 | 3.2 | 9.7 | 0.00 | 0.00 | 0.00 | 48 | 1012.0 |
| 20260506133306 | 21 | 200 | 6.4 | 9.7 | 0.00 | 0.00 | 0.00 | 48 | 1012.1 |
| 20260506132655 | 21 | 51 | 3.2 | 9.7 | 0.00 | 0.00 | 0.00 | 49 | 1012.1 |
| 20260506132300 | 21 | 176 | 3.2 | 9.7 | 0.00 | 0.00 | 0.00 | 48 | 1012.1 |
| 20260506131654 | 21 | 212 | 3.2 | 9.7 | 0.00 | 0.00 | 0.00 | 49 | 1012.1 |
| 20260506131253 | 21 | 252 | 4.8 | 12.9 | 0.00 | 0.00 | 0.00 | 49 | 1012.3 |
| 20260506130657 | 21 | 262 | 6.4 | 12.9 | 0.00 | 0.00 | 0.00 | 50 | 1012.2 |
| 20260506130303 | 21 | 276 | 4.8 | 11.3 | 0.00 | 0.00 | 0.00 | 50 | 1012.2 |
| 20260506125655 | 21 | 266 | 3.2 | 9.7 | 0.00 | 0.00 | 0.00 | 52 | 1012.2 |
| 20260506125154 | 21 | 84 | 3.2 | 11.3 | 0.00 | 0.00 | 0.00 | 54 | 1012.2 |
| 20260506124655 | 21 | 249 | 4.8 | 12.9 | 0.00 | 0.00 | 0.00 | 52 | 1012.3 |
| 20260506124240 | 21 | 163 | 3.2 | 12.9 | 0.00 | 0.00 | 0.00 | 51 | 1012.3 |
| 20260506123707 | 20 | 122 | 4.8 | 12.9 | 0.00 | 0.00 | 0.00 | 51 | 1012.3 |
| 20260506123308 | 20 | 182 | 6.4 | 12.9 | 0.00 | 0.00 | 0.00 | 51 | 1012.4 |
| 20260506122655 | 20 | 247 | 4.8 | 12.9 | 0.00 | 0.00 | 0.00 | 52 | 1012.4 |
| 20260506122243 | 20 | 352 | 4.8 | 12.9 | 0.00 | 0.00 | 0.00 | 53 | 1012.5 |
| 20260506121654 | 20 | 153 | 4.8 | 14.5 | 0.00 | 0.00 | 0.00 | 54 | 1012.4 |
| 20260506121229 | 20 | 271 | 6.4 | 14.5 | 0.00 | 0.00 | 0.00 | 53 | 1012.4 |
| 20260506120815 | 20 | 331 | 8.0 | 14.5 | 0.00 | 0.00 | 0.00 | 56 | 1012.4 |
| 20260506120311 | 20 | 166 | 8.0 | 17.7 | 0.00 | 0.00 | 0.00 | 56 | 1012.3 |
| 20260506115811 | 20 | 293 | 8.0 | 17.7 | 0.00 | 0.00 | 0.00 | 54 | 1012.4 |
| 20260506115154 | 20 | 166 | 9.7 | 16.1 | 0.00 | 0.00 | 0.00 | 55 | 1012.3 |
| 20260506115148 | 21 | 197 | 4.8 | 8.0 | 0.00 | 0.00 | 0.00 | 49 | 1012.1 |
| 20260506114850 | 21 | 189 | 4.8 | 11.3 | 0.00 | 0.00 | 0.00 | 49 | 1012.3 |
| 20260506114401 | 21 | 168 | 4.8 | 11.3 | 0.00 | 0.00 | 0.00 | 50 | 1012.2 |
| 20260506113848 | 21 | 284 | 6.4 | 9.7 | 0.00 | 0.00 | 0.00 | 49 | 1012.3 |
| 20260506113400 | 21 | 125 | 3.2 | 9.7 | 0.00 | 0.00 | 0.00 | 51 | 1012.2 |
| 20260506112157 | 21 | 169 | 4.8 | 9.7 | 0.00 | 0.00 | 0.00 | 49 | 1012.2 |
| 20260506111653 | 21 | 319 | 4.8 | 9.7 | 0.00 | 0.00 | 0.00 | 49 | 1012.3 |
| 20260506111616 | 20 | 215 | 3.2 | 11.3 | 0.00 | 0.00 | 0.00 | 52 | 1012.4 |
| 20260506111245 | 21 | 120 | 3.2 | 8.0 | 0.00 | 0.00 | 0.00 | 50 | 1012.3 |
| 20260506110911 | 21 | 141 | 3.2 | 9.7 | 0.00 | 0.00 | 0.00 | 51 | 1012.4 |
| 20260506105731 | 20 | 269 | 4.8 | 11.3 | 0.00 | 0.00 | 0.00 | 53 | 1012.5 |
| 20260506105153 | 20 | 282 | 4.8 | 11.3 | 0.00 | 0.00 | 0.00 | 53 | 1012.5 |
| 20260506104729 | 20 | 108 | 4.8 | 12.9 | 0.00 | 0.00 | 0.00 | 52 | 1012.6 |
| 20260506104153 | 20 | 189 | 6.4 | 14.5 | 0.00 | 0.00 | 0.00 | 51 | 1012.6 |
| 20260506103723 | 20 | 224 | 6.4 | 16.1 | 0.00 | 0.00 | 0.00 | 54 | 1012.7 |
| 20260506103153 | 20 | 115 | 9.7 | 16.1 | 0.00 | 0.00 | 0.00 | 53 | 1012.6 |
| 20260506102850 | 19 | 180 | 6.4 | 14.5 | 0.00 | 0.00 | 0.00 | 55 | 1012.7 |
| 20260506102803 | 20 | 163 | 6.4 | 14.5 | 0.00 | 0.00 | 0.00 | 53 | 1012.7 |
| 20260506102404 | 20 | 162 | 8.0 | 14.5 | 0.00 | 0.00 | 0.00 | 54 | 1012.8 |
| 20260506101305 | 19 | 212 | 6.4 | 20.9 | 0.00 | 0.00 | 0.00 | 56 | 1012.7 |
| 20260506100653 | 19 | 162 | 6.4 | 20.9 | 0.00 | 0.00 | 0.00 | 57 | 1012.7 |
| 20260506100332 | 19 | 223 | 8.0 | 19.3 | 0.00 | 0.00 | 0.00 | 56 | 1012.7 |
| 20260506095731 | 18 | 94 | 9.7 | 19.3 | 0.00 | 0.00 | 0.00 | 57 | 1012.8 |
| 20260506095254 | 18 | 237 | 8.0 | 16.1 | 0.00 | 0.00 | 0.00 | 57 | 1012.8 |
| 20260506094657 | 18 | 209 | 8.0 | 17.7 | 0.00 | 0.00 | 0.00 | 58 | 1012.8 |
| 20260506094153 | 18 | 220 | 8.0 | 17.7 | 0.00 | 0.00 | 0.00 | 57 | 1012.8 |
| 20260506093653 | 18 | 279 | 9.7 | 14.5 | 0.00 | 0.00 | 0.00 | 56 | 1012.8 |
| 20260506093241 | 18 | 241 | 8.0 | 17.7 | 0.00 | 0.00 | 0.00 | 55 | 1012.8 |
| 20260506092945 | 18 | 239 | 11.3 | 16.1 | 0.00 | 0.00 | 0.00 | 53 | 1012.8 |
| 20260506092842 | 18 | 207 | 11.3 | 17.7 | 0.00 | 0.00 | 0.00 | 55 | 1012.8 |
| 20260506091808 | 19 | 236 | 3.2 | 11.3 | 0.00 | 0.00 | 0.00 | 58 | 1012.7 |
| 20260506091739 | 18 | 243 | 8.0 | 16.1 | 0.00 | 0.00 | 0.00 | 52 | 1012.8 |
| 20260506091250 | 18 | 238 | 8.0 | 16.1 | 0.00 | 0.00 | 0.00 | 52 | 1012.8 |
| 20260506090755 | 18 | 269 | 6.4 | 16.1 | 0.00 | 0.00 | 0.00 | 54 | 1012.7 |
| 20260506090309 | 18 | 248 | 6.4 | 14.5 | 0.00 | 0.00 | 0.00 | 56 | 1012.7 |
| 20260506085840 | 18 | 231 | 9.7 | 14.5 | 0.00 | 0.00 | 0.00 | 56 | 1012.8 |
| 20260506084852 | 19 | 229 | 4.8 | 9.7 | 0.00 | 0.00 | 0.00 | 60 | 1012.7 |
| 20260506084402 | 19 | 44 | 3.2 | 9.7 | 0.00 | 0.00 | 0.00 | 61 | 1012.7 |
| 20260506083850 | 19 | 88 | 3.2 | 9.7 | 0.00 | 0.00 | 0.00 | 60 | 1012.6 |
| 20260506083112 | 19 | 266 | 1.6 | 6.4 | 0.00 | 0.00 | 0.00 | 61 | 1012.5 |
| 20260506082206 | 19 | 274 | 1.6 | 8.0 | 0.00 | 0.00 | 0.00 | 62 | 1012.5 |
| 20260506081753 | 18 | 159 | 4.8 | 8.0 | 0.00 | 0.00 | 0.00 | 62 | 1012.6 |
| 20260506081614 | 18 | 115 | 1.6 | 4.8 | 0.00 | 0.00 | 0.00 | 65 | 1012.3 |
| 20260506081608 | 18 | 188 | 1.6 | 6.4 | 0.00 | 0.00 | 0.00 | 64 | 1012.4 |
| 20260506081243 | 18 | 290 | 1.6 | 9.7 | 0.00 | 0.00 | 0.00 | 65 | 1012.4 |
| 20260506080657 | 18 | 184 | 1.6 | 9.7 | 0.00 | 0.00 | 0.00 | 65 | 1012.5 |
| 20260506080456 | 18 | 251 | 3.2 | 9.7 | 0.00 | 0.00 | 0.00 | 64 | 1012.5 |
| 20260506073315 | 17 | 127 | 0.0 | 9.7 | 0.00 | 0.00 | 0.00 | 69 | 1012.2 |
| 20260506072844 | 16 | 323 | 4.8 | 9.7 | 0.00 | 0.00 | 0.00 | 69 | 1012.2 |
| 20260506072517 | 16 | 35 | 3.2 | 9.7 | 0.00 | 0.00 | 0.00 | 67 | 1012.2 |
| 20260506071856 | 16 | 291 | 6.4 | 14.5 | 0.00 | 0.00 | 0.00 | 66 | 1012.1 |
| 20260506070900 | 16 | 302 | 4.8 | 14.5 | 0.00 | 0.00 | 0.00 | 67 | 1012.1 |
| 20260506070436 | 16 | 312 | 9.7 | 14.5 | 0.00 | 0.00 | 0.00 | 67 | 1012.0 |
| 20260506062305 | 15 | 303 | 8.0 | 14.5 | 0.00 | 0.00 | 0.00 | 69 | 1011.9 |
| 20260506061947 | 15 | 323 | 6.4 | 14.5 | 0.00 | 0.00 | 0.00 | 70 | 1011.8 |
| 20260506061804 | 15 | 300 | 6.4 | 14.5 | 0.00 | 0.00 | 0.00 | 71 | 1011.8 |
| 20260506060654 | 15 | 301 | 8.0 | 14.5 | 0.00 | 0.00 | 0.00 | 71 | 1011.8 |
| 20260506060243 | 15 | 349 | 8.0 | 14.5 | 0.00 | 0.00 | 0.00 | 72 | 1011.8 |
| 20260506051152 | 14 | 323 | 9.7 | 12.9 | 0.00 | 0.00 | 0.00 | 80 | 1011.5 |
| 20260506050748 | 14 | 322 | 6.4 | 9.7 | 0.00 | 0.00 | 0.00 | 83 | 1011.5 |
| 20260506050222 | 14 | 321 | 4.8 | 6.4 | 0.00 | 0.00 | 0.00 | 83 | 1011.4 |
| 20260506044724 | 14 | 340 | 3.2 | 6.4 | 0.00 | 0.00 | 0.00 | 82 | 1011.2 |
| 20260506044152 | 14 | 335 | 3.2 | 8.0 | 0.00 | 0.00 | 0.00 | 82 | 1011.2 |
| 20260506043720 | 14 | 1 | 4.8 | 8.0 | 0.00 | 0.00 | 0.00 | 82 | 1011.2 |
| 20260506043307 | 14 | 347 | 3.2 | 6.4 | 0.00 | 0.00 | 0.00 | 83 | 1011.2 |
| 20260506043258 | 14 | 7 | 4.8 | 9.7 | 0.00 | 0.00 | 0.00 | 83 | 1011.2 |
| 20260506043242 | 14 | 336 | 4.8 | 6.4 | 0.00 | 0.00 | 0.00 | 82 | 1011.2 |
| 20260506042047 | 14 | 10 | 4.8 | 8.0 | 0.00 | 0.00 | 0.00 | 84 | 1011.2 |
| 20260506041907 | 14 | 356 | 4.8 | 9.7 | 0.00 | 0.00 | 0.00 | 83 | 1011.2 |
| 20260506040958 | 14 | 28 | 6.4 | 8.0 | 0.00 | 0.00 | 0.00 | 84 | 1011.1 |
| 20260506040311 | 14 | 19 | 4.8 | 8.0 | 0.00 | 0.00 | 0.00 | 84 | 1011.1 |
| 20260506035652 | 14 | 24 | 4.8 | 6.4 | 0.00 | 0.00 | 0.00 | 84 | 1011.1 |
| 20260506035248 | 14 | 351 | 4.8 | 6.4 | 0.00 | 0.00 | 0.00 | 85 | 1011.1 |
| 20260506034652 | 14 | 25 | 3.2 | 6.4 | 0.00 | 0.00 | 0.00 | 85 | 1011.2 |
| 20260506034449 | 14 | 6 | 3.2 | 4.8 | 0.00 | 0.00 | 0.00 | 86 | 1011.1 |
| 20260506034353 | 14 | 352 | 3.2 | 6.4 | 0.00 | 0.00 | 0.00 | 86 | 1011.1 |
| 20260506033235 | 14 | 349 | 1.6 | 3.2 | 0.00 | 0.00 | 0.00 | 87 | 1011.1 |
| 20260506033052 | 13 | 348 | 1.6 | 3.2 | 0.00 | 0.00 | 0.00 | 87 | 1011.0 |
| 20260506032728 | 14 | 353 | 1.6 | 3.2 | 0.00 | 0.00 | 0.00 | 87 | 1011.0 |
| 20260506031710 | 13 | 340 | 1.6 | 3.2 | 0.00 | 0.00 | 0.00 | 86 | 1011.1 |
| 20260506031231 | 14 | 347 | 1.6 | 3.2 | 0.00 | 0.00 | 0.00 | 86 | 1011.1 |
| 20260506030958 | 14 | 336 | 1.6 | 4.8 | 0.00 | 0.00 | 0.00 | 86 | 1011.1 |
| 20260506030922 | 14 | 15 | 0.0 | 4.8 | 0.00 | 0.00 | 0.00 | 86 | 1011.1 |
| 20260506025734 | 14 | 325 | 1.6 | 3.2 | 0.00 | 0.00 | 0.00 | 86 | 1011.1 |
| 20260506025421 | 14 | 325 | 0.0 | 4.8 | 0.00 | 0.00 | 0.00 | 85 | 1011.2 |
| 20260506025234 | 14 | 328 | 0.0 | 1.6 | 0.00 | 0.00 | 0.00 | 85 | 1011.1 |
| 20260506024206 | 14 | 321 | 3.2 | 4.8 | 0.00 | 0.00 | 0.00 | 85 | 1011.1 |
| 20260506023751 | 14 | 320 | 1.6 | 3.2 | 0.00 | 0.00 | 0.00 | 85 | 1011.1 |
| 20260506023202 | 14 | 316 | 1.6 | 3.2 | 0.00 | 0.00 | 0.00 | 84 | 1011.0 |
| 20260506022746 | 14 | 319 | 1.6 | 3.2 | 0.00 | 0.00 | 0.00 | 83 | 1011.1 |
| 20260506022212 | 14 | 359 | 0.0 | 3.2 | 0.00 | 0.00 | 0.00 | 81 | 1010.9 |
| 20260506022200 | 14 | 314 | 1.6 | 4.8 | 0.00 | 0.00 | 0.00 | 82 | 1011.1 |
| 20260506021921 | 14 | 329 | 1.6 | 4.8 | 0.00 | 0.00 | 0.00 | 81 | 1011.0 |
| 20260506021024 | 14 | 324 | 3.2 | 6.4 | 0.00 | 0.00 | 0.00 | 79 | 1010.9 |
| 20260506020835 | 14 | 359 | 0.0 | 4.8 | 0.00 | 0.00 | 0.00 | 80 | 1010.9 |
| 20260506020346 | 14 | 322 | 3.2 | 6.4 | 0.00 | 0.00 | 0.00 | 80 | 1010.9 |
| 20260506015153 | 14 | 314 | 1.6 | 4.8 | 0.00 | 0.00 | 0.00 | 78 | 1010.9 |
| 20260506014652 | 14 | 349 | 1.6 | 4.8 | 0.00 | 0.00 | 0.00 | 78 | 1010.9 |
| 20260506014321 | 14 | 329 | 1.6 | 6.4 | 0.00 | 0.00 | 0.00 | 78 | 1010.9 |
| 20260506013651 | 14 | 343 | 3.2 | 6.4 | 0.00 | 0.00 | 0.00 | 77 | 1010.9 |
| 20260506013305 | 14 | 357 | 1.6 | 4.8 | 0.00 | 0.00 | 0.00 | 78 | 1010.9 |
| 20260506012709 | 14 | 345 | 1.6 | 3.2 | 0.00 | 0.00 | 0.00 | 78 | 1010.9 |
| 20260506012244 | 14 | 349 | 3.2 | 3.2 | 0.00 | 0.00 | 0.00 | 76 | 1010.9 |
| 20260506012232 | 14 | 349 | 0.0 | 0.0 | 0.00 | 0.00 | 0.00 | 77 | 1010.9 |
| 20260506011803 | 14 | 349 | 0.0 | 0.0 | 0.00 | 0.00 | 0.00 | 77 | 1011.0 |
| 20260506011433 | 14 | 349 | 0.0 | 3.2 | 0.00 | 0.00 | 0.00 | 76 | 1011.0 |
| 20260506010244 | 14 | 340 | 0.0 | 1.6 | 0.00 | 0.00 | 0.00 | 76 | 1010.9 |
| 20260506005944 | 14 | 326 | 0.0 | 6.4 | 0.00 | 0.00 | 0.00 | 76 | 1010.9 |
| 20260506005237 | 14 | 355 | 1.6 | 6.4 | 0.00 | 0.00 | 0.00 | 75 | 1010.9 |
| 20260506004653 | 14 | 316 | 3.2 | 4.8 | 0.00 | 0.00 | 0.00 | 76 | 1010.9 |
| 20260506004232 | 14 | 311 | 3.2 | 4.8 | 0.00 | 0.00 | 0.00 | 76 | 1010.9 |
| 20260506003652 | 14 | 302 | 1.6 | 4.8 | 0.00 | 0.00 | 0.00 | 75 | 1011.0 |
| 20260506003609 | 14 | 328 | 1.6 | 4.8 | 0.00 | 0.00 | 0.00 | 75 | 1011.0 |
| 20260506003604 | 15 | 313 | 0.0 | 3.2 | 0.00 | 0.00 | 0.00 | 75 | 1010.9 |
| 20260506002806 | 15 | 286 | 1.6 | 3.2 | 0.00 | 0.00 | 0.00 | 75 | 1010.9 |
| 20260506001814 | 15 | 313 | 1.6 | 3.2 | 0.00 | 0.00 | 0.00 | 75 | 1011.0 |
| 20260506001153 | 15 | 316 | 1.6 | 3.2 | 0.00 | 0.00 | 0.00 | 75 | 1011.1 |
| 20260506000808 | 15 | 348 | 0.0 | 3.2 | 0.00 | 0.00 | 0.00 | 75 | 1011.1 |
| 20260506000151 | 15 | 11 | 3.2 | 3.2 | 0.00 | 0.00 | 0.00 | 74 | 1011.2 |
| 20260505235831 | 15 | 305 | 3.2 | 6.4 | 0.00 | 0.00 | 0.00 | 71 | 1011.3 |
| 20260505235812 | 15 | 59 | 0.0 | 3.2 | 0.00 | 0.00 | 0.00 | 72 | 1011.2 |
| 20260505235321 | 15 | 278 | 0.0 | 1.6 | 0.00 | 0.00 | 0.00 | 72 | 1011.2 |
| 20260505234739 | 15 | 281 | 0.0 | 4.8 | 0.00 | 0.00 | 0.00 | 71 | 1011.2 |
| 20260505233651 | 16 | 301 | 1.6 | 6.4 | 0.00 | 0.00 | 0.00 | 70 | 1011.3 |
| 20260505233543 | 16 | 276 | 3.2 | 4.8 | 0.00 | 0.00 | 0.00 | 69 | 1011.2 |
| 20260505233316 | 16 | 314 | 3.2 | 4.8 | 0.00 | 0.00 | 0.00 | 69 | 1011.2 |
| 20260505232151 | 16 | 266 | 0.0 | 1.6 | 0.00 | 0.00 | 0.00 | 69 | 1011.1 |
| 20260505231732 | 16 | 274 | 0.0 | 6.4 | 0.00 | 0.00 | 0.00 | 69 | 1011.0 |
| 20260505231152 | 16 | 1 | 1.6 | 6.4 | 0.00 | 0.00 | 0.00 | 69 | 1011.0 |
| 20260505230759 | 16 | 309 | 3.2 | 9.7 | 0.00 | 0.00 | 0.00 | 69 | 1011.1 |
| 20260505230151 | 16 | 319 | 4.8 | 9.7 | 0.00 | 0.00 | 0.00 | 69 | 1011.1 |
| 20260505225724 | 16 | 323 | 3.2 | 8.0 | 0.00 | 0.00 | 0.00 | 70 | 1011.2 |
| 20260505225151 | 16 | 297 | 4.8 | 6.4 | 0.00 | 0.00 | 0.00 | 70 | 1011.2 |
| 20260505224804 | 16 | 316 | 4.8 | 9.7 | 0.00 | 0.00 | 0.00 | 65 | 1011.5 |
| 20260505224745 | 16 | 319 | 9.7 | 14.5 | 0.00 | 0.00 | 0.00 | 67 | 1011.4 |
| 20260505224732 | 16 | 293 | 4.8 | 11.3 | 0.00 | 0.00 | 0.00 | 70 | 1011.2 |
| 20260505224402 | 16 | 323 | 4.8 | 16.1 | 0.00 | 0.00 | 0.00 | 70 | 1011.2 |
| 20260505223654 | 16 | 340 | 8.0 | 16.1 | 0.00 | 0.00 | 0.00 | 70 | 1011.3 |
| 20260505223410 | 16 | 298 | 9.7 | 16.1 | 0.00 | 0.00 | 0.00 | 70 | 1011.4 |
| 20260505222915 | 16 | 330 | 9.7 | 16.1 | 0.00 | 0.00 | 0.00 | 70 | 1011.4 |
| 20260505221843 | 16 | 308 | 4.8 | 14.5 | 0.00 | 0.00 | 0.00 | 66 | 1011.5 |
| 20260505221045 | 16 | 304 | 4.8 | 11.3 | 0.00 | 0.00 | 0.00 | 65 | 1011.6 |
| 20260505220720 | 16 | 293 | 4.8 | 11.3 | 0.00 | 0.00 | 0.00 | 65 | 1011.6 |
| 20260505215651 | 16 | 319 | 4.8 | 9.7 | 0.00 | 0.00 | 0.00 | 65 | 1011.7 |
| 20260505215243 | 16 | 303 | 4.8 | 11.3 | 0.00 | 0.00 | 0.00 | 65 | 1011.8 |
| 20260505214651 | 16 | 297 | 8.0 | 11.3 | 0.00 | 0.00 | 0.00 | 63 | 1011.8 |
| 20260505214238 | 16 | 303 | 3.2 | 6.4 | 0.00 | 0.00 | 0.00 | 63 | 1011.8 |
| 20260505213720 | 16 | 228 | 0.0 | 0.0 | 0.00 | 0.00 | 0.00 | 65 | 1011.7 |
| 20260505213658 | 16 | 315 | 3.2 | 6.4 | 0.00 | 0.00 | 0.00 | 63 | 1011.9 |
| 20260505213424 | 16 | 264 | 0.0 | 3.2 | 0.00 | 0.00 | 0.00 | 64 | 1011.8 |
| 20260505212228 | 16 | 228 | 0.0 | 0.0 | 0.00 | 0.00 | 0.00 | 67 | 1011.6 |
| 20260505211651 | 16 | 228 | 0.0 | 0.0 | 0.00 | 0.00 | 0.00 | 65 | 1011.4 |
| 20260505211616 | 16 | 228 | 0.0 | 3.2 | 0.00 | 0.00 | 0.00 | 66 | 1011.2 |
| 20260505210809 | 16 | 228 | 0.0 | 3.2 | 0.00 | 0.00 | 0.00 | 65 | 1011.2 |
| 20260505210153 | 16 | 164 | 0.0 | 1.6 | 0.00 | 0.00 | 0.00 | 66 | 1011.2 |
| 20260505210146 | 16 | 300 | 4.8 | 11.3 | 0.00 | 0.00 | 0.00 | 65 | 1011.1 |
| 20260505205907 | 16 | 208 | 0.0 | 1.6 | 0.00 | 0.00 | 0.00 | 64 | 1011.2 |
| 20260505205345 | 16 | 278 | 0.0 | 4.8 | 0.00 | 0.00 | 0.00 | 65 | 1011.2 |
| 20260505204853 | 16 | 306 | 1.6 | 8.0 | 0.00 | 0.00 | 0.00 | 65 | 1011.2 |
| 20260505203746 | 16 | 295 | 8.0 | 11.3 | 0.00 | 0.00 | 0.00 | 66 | 1011.2 |
| 20260505203151 | 16 | 285 | 8.0 | 11.3 | 0.00 | 0.00 | 0.00 | 66 | 1011.1 |
| 20260505202651 | 16 | 303 | 6.4 | 9.7 | 0.00 | 0.00 | 0.00 | 64 | 1011.1 |
| 20260505202152 | 16 | 300 | 4.8 | 9.7 | 0.00 | 0.03 | 0.00 | 63 | 1010.9 |
| 20260505201731 | 16 | 309 | 4.8 | 11.3 | 0.00 | 0.05 | 0.00 | 62 | 1010.8 |
| 20260505201151 | 16 | 294 | 6.4 | 11.3 | 0.00 | 0.05 | 0.00 | 62 | 1010.7 |
| 20260505200727 | 16 | 299 | 6.4 | 14.5 | 0.00 | 0.05 | 0.00 | 61 | 1010.5 |
| 20260505200214 | 16 | 345 | 8.0 | 17.7 | 0.00 | 0.05 | 0.00 | 62 | 1010.4 |